This is the latest recevied weather packets stored in our database for station/object KC8JWT. If no packets are shown the sender has not sent any weather packets the latest 10 day(s).
| Time | Temp. | Humidity | Pressure | Rain* | Wind** | Luminosity | Snow |
|---|---|---|---|---|---|---|---|
| 1778095719 | 17.22° C | 78% | 1011 hPa | 0 mm | - | 456 W/m² | - |
| 1778095416 | 17.22° C | 79% | 1011.1 hPa | 0 mm | - | 489 W/m² | - |
| 1778095113 | 16.67° C | 80% | 1011 hPa | 0 mm | - | 425 W/m² | - |
| 1778094809 | 16.67° C | 80% | 1011.1 hPa | 0 mm | - | 302 W/m² | - |
| 1778094506 | 17.22° C | 78% | 1011.2 hPa | 0 mm | - | 310 W/m² | - |
| 1778094202 | 17.22° C | 80% | 1011 hPa | 0 mm | - | 302 W/m² | - |
| 1778093899 | 17.22° C | 79% | 1011.1 hPa | 0 mm | - | 397 W/m² | - |
| 1778093596 | 16.67° C | 80% | 1011.1 hPa | 0 mm | - | 478 W/m² | - |
| 1778093293 | 16.11° C | 82% | 1011.2 hPa | 0 mm | - | 381 W/m² | - |
| 1778092991 | 16.11° C | 83% | 1011.3 hPa | 0 mm | - | 374 W/m² | - |
| 1778092688 | 16.11° C | 82% | 1011.5 hPa | 0 mm | - | 340 W/m² | - |
| 1778092383 | 16.11° C | 84% | 1011.3 hPa | 0 mm | - | 243 W/m² | - |
| 1778092080 | 16.11° C | 82% | 1011.4 hPa | 0 mm | - | 235 W/m² | - |
| 1778091777 | 16.67° C | 83% | 1011.2 hPa | 0 mm | - | 256 W/m² | - |
| 1778091475 | 16.67° C | 83% | 1011.3 hPa | 0 mm | - | 299 W/m² | - |
| 1778091173 | 16.67° C | 81% | 1011.3 hPa | 0 mm | - | 440 W/m² | - |
| 1778090870 | 16.11° C | 85% | 1011.3 hPa | 0 mm | - | 550 W/m² | - |
| 1778090565 | 15.56° C | 85% | 1011.3 hPa | 0 mm | - | 515 W/m² | - |
| 1778090262 | 15.56° C | 84% | 1011.5 hPa | 0 mm | - | 369 W/m² | - |
| 1778089959 | 15.56° C | 87% | 1011.4 hPa | 0 mm | - | 314 W/m² | - |
| 1778089656 | 15.56° C | 86% | 1011.4 hPa | 0 mm | - | 311 W/m² | - |
| 1778089353 | 15.56° C | 85% | 1011.5 hPa | 0 mm | - | 307 W/m² | - |
| 1778089051 | 15.56° C | 84% | 1011.6 hPa | 0 mm | - | 328 W/m² | - |
| 1778088747 | 15.56° C | 85% | 1011.5 hPa | 0 mm | - | 373 W/m² | - |
| 1778088444 | 16.11° C | 84% | 1011.4 hPa | 0 mm | - | 478 W/m² | - |
* Rain latest hour (hover to see other rain measurements)
** Current wind speed in m/s (hover to see current wind gust speed)